Date,TemperatureHighF,TemperatureAvgF,TemperatureLowF,DewpointHighF,DewpointAvgF,DewpointLowF,HumidityHigh,HumidityAvg,HumidityLow,PressureMaxIn,PressureMinIn,WindSpeedMaxMPH,WindSpeedAvgMPH,GustSpeedMaxMPH,PrecipitationSumIn
2013-2-1,62.1,53.2,47.3,45.0,38.2,29.0,77,58,42,30.39,30.30,11,5,17,0.00
2013-2-2,63.4,54.3,42.6,56.0,42.4,28.0,85,65,48,30.37,30.18,8,4,13,0.00
2013-2-3,66.0,57.5,50.6,56.0,47.5,34.0,91,72,31,30.26,30.12,11,5,15,0.00
2013-2-4,66.4,57.8,49.3,57.0,48.7,37.0,89,72,57,30.12,29.98,7,3,9,0.00
2013-2-5,65.8,61.0,56.2,62.0,58.9,55.0,97,93,82,30.04,29.95,10,3,15,0.47
2013-2-6,65.0,60.6,56.0,62.0,58.7,56.0,99,93,83,30.15,30.02,8,3,14,0.01
2013-2-7,75.3,65.3,59.1,66.0,60.9,57.0,99,87,56,30.02,29.78,22,6,25,2.76
2013-2-8,68.6,60.3,53.8,62.0,57.2,53.0,98,90,76,30.14,29.94,15,4,20,0.00
2013-2-9,62.9,57.5,50.4,57.0,52.6,47.0,89,83,79,30.26,30.14,11,6,18,0.00
2013-2-10,71.1,67.0,63.0,68.0,63.6,54.0,97,89,70,30.14,29.99,16,9,24,0.01
2013-2-11,73.8,65.1,59.8,70.0,63.4,57.0,99,94,84,30.09,30.01,15,5,21,0.44
2013-2-12,69.1,64.1,58.7,68.0,62.7,57.0,98,95,89,30.04,29.78,14,7,22,0.12
2013-2-13,67.9,57.1,47.9,67.0,53.5,46.0,98,88,60,30.06,29.79,14,6,22,0.09
2013-2-14,57.1,49.4,43.8,46.0,43.0,41.0,89,79,60,30.17,30.03,14,4,15,0.00
2013-2-15,64.1,53.2,45.3,49.0,44.7,39.0,91,74,44,30.18,30.05,10,3,11,0.00
2013-2-16,53.4,49.0,40.8,46.0,30.8,20.0,79,52,28,30.30,30.07,20,8,29,0.00
2013-2-17,55.3,46.2,36.1,38.0,27.4,17.0,66,49,31,30.41,30.29,13,5,17,0.00
2013-2-18,64.5,59.5,53.3,57.0,46.5,38.0,81,63,52,30.31,30.05,20,9,26,0.00
2013-2-19,67.1,61.3,50.0,62.0,50.5,36.0,97,70,34,30.20,30.00,21,7,26,0.53
2013-2-20,56.8,49.1,42.1,45.0,32.7,24.0,81,55,32,30.27,30.09,13,4,17,0.00
2013-2-21,65.9,58.9,48.1,65.0,52.9,39.0,96,81,66,30.09,29.91,14,7,24,0.00
2013-2-22,67.6,65.8,64.3,67.0,65.4,64.0,99,98,96,29.99,29.86,9,3,14,1.93
2013-2-23,68.3,61.3,58.3,68.0,60.9,57.0,100,98,96,29.95,29.79,10,4,16,0.19
2013-2-24,63.6,59.6,53.6,61.0,56.8,53.0,98,90,80,29.99,29.81,13,4,22,0.90
2013-2-25,65.9,62.8,60.3,65.0,61.9,60.0,99,97,89,29.86,29.54,25,10,31,3.97
2013-2-26,65.4,57.1,54.2,65.0,48.2,43.0,99,73,64,29.93,29.55,20,9,25,0.01
2013-2-27,61.8,56.9,50.9,53.0,45.8,40.0,82,67,49,30.04,29.92,12,4,17,0.00
2013-2-28,58.8,53.0,46.8,53.0,38.7,32.0,87,60,38,30.09,29.97,13,6,19,0.00